Terug naar catalogus

FENGYUN 1C DEB

ActiefPO
NORAD 36269·DEBRIS·🇨🇳 China

Gelanceerd May 10, 1999 vanaf Taiyuan Satellite Launch Center

Loading…

Volgende Passages (komende 24 uur)

TLE

VersSource: Space-Track

Epoch: Sep 14, 2026, 04:02 UTC

1 36269U 99025DWW 26257.16854963  .00000688  00000-0  22556-3 0  9990
2 36269  99.1368 216.4513 0230474 205.3312 153.6424 14.28036387916465

Volg FENGYUN 1C DEB in realtime met AllMySat

Download on the App Store